HAZ733 ZSPD-CYVR

Flight info

Callsign HAZ733
Flight time N/A
Altitude 33000
Route LAM91D LAMEN/N0497F330 A593 SADLI Y590 BEDAR Y591 FUE Y23 KASTE Y81 TASOT Y57 POROT Y809 IDLAN Y812 ADNAP OTR5 KALNA DCT 42N160E 45N170E/N0485F350 49N180E 50N170W 51N160W 51N150W/N0484F370 51N140W DCT ORNAI
Aircraft B77W/H-SDE1E2E3FGHIJ2J3J4J5M1RWXY/LB1D1

Departure

Time 2026-05-07 15:13
Airport Shanghai Pudong International Airport (ZSPD)

Arrival

Time N/A
Airport Vancouver International Airport (CYVR)
Time Latitude Longitude Altitude Speed Heading
2026-05-07 14:59 31.14802 121.79775 28 ft 0 kts 71°
2026-05-07 15:02 31.14798 121.79761 28 ft 2 kts 72°
2026-05-07 15:02 31.14793 121.79745 28 ft 2 kts 72°
2026-05-07 15:02 31.14789 121.79729 28 ft 2 kts 72°
2026-05-07 15:03 31.14785 121.79712 28 ft 2 kts 87°
2026-05-07 15:03 31.14786 121.79694 28 ft 2 kts 105°
2026-05-07 15:03 31.14792 121.79678 28 ft 2 kts 121°
2026-05-07 15:03 31.14801 121.79665 28 ft 2 kts 137°
2026-05-07 15:04 31.14813 121.79654 28 ft 2 kts 153°
2026-05-07 15:04 31.14821 121.79649 28 ft 1 kts 163°
2026-05-07 15:04 31.14822 121.79649 28 ft 0 kts 163°
2026-05-07 15:05 31.14807 121.79655 28 ft 6 kts 163°
2026-05-07 15:06 31.14737 121.79681 28 ft 14 kts 162°
2026-05-07 15:06 31.14646 121.79714 28 ft 12 kts 172°
2026-05-07 15:06 31.14586 121.79662 28 ft 11 kts 252°
2026-05-07 15:06 31.14560 121.79575 28 ft 11 kts 251°
2026-05-07 15:07 31.14532 121.79483 28 ft 12 kts 244°
2026-05-07 15:07 31.14460 121.79449 28 ft 12 kts 166°
2026-05-07 15:07 31.14361 121.79488 28 ft 18 kts 162°
2026-05-07 15:07 31.14217 121.79540 28 ft 24 kts 162°
2026-05-07 15:08 31.14038 121.79607 28 ft 27 kts 162°
2026-05-07 15:08 31.13862 121.79675 28 ft 24 kts 161°
2026-05-07 15:08 31.13703 121.79736 28 ft 24 kts 162°
2026-05-07 15:08 31.13532 121.79800 28 ft 26 kts 161°
2026-05-07 15:09 31.13355 121.79868 28 ft 26 kts 162°
2026-05-07 15:09 31.13189 121.79929 28 ft 23 kts 162°
2026-05-07 15:09 31.13042 121.79985 28 ft 20 kts 161°
2026-05-07 15:09 31.12914 121.80035 28 ft 18 kts 162°
2026-05-07 15:10 31.12819 121.80069 28 ft 10 kts 163°
2026-05-07 15:10 31.12755 121.80057 28 ft 9 kts 220°
2026-05-07 15:10 31.12738 121.80021 28 ft 0 kts 251°
2026-05-07 15:11 31.12735 121.80014 28 ft 3 kts 251°
2026-05-07 15:11 31.12722 121.79966 28 ft 8 kts 252°
2026-05-07 15:11 31.12719 121.79906 28 ft 6 kts 292°
2026-05-07 15:11 31.12746 121.79880 28 ft 4 kts 335°
2026-05-07 15:12 31.12759 121.79874 28 ft 0 kts 342°
2026-05-07 15:12 31.12812 121.79854 28 ft 30 kts 342°
2026-05-07 15:12 31.13221 121.79697 28 ft 92 kts 342°
2026-05-07 15:12 31.14012 121.79398 28 ft 145 kts 342°
2026-05-07 15:13 31.15133 121.78969 82 ft 186 kts 342°
2026-05-07 15:13 31.16392 121.78490 581 ft 196 kts 349°
2026-05-07 15:13 31.17668 121.78035 1522 ft 189 kts 345°
2026-05-07 15:13 31.18928 121.77479 1887 ft 201 kts 346°
2026-05-07 15:14 31.20305 121.76910 2074 ft 222 kts 346°
2026-05-07 15:14 31.21817 121.76296 2470 ft 235 kts 345°
2026-05-07 15:14 31.23368 121.75663 3119 ft 238 kts 343°
2026-05-07 15:14 31.24958 121.75015 3707 ft 243 kts 343°
2026-05-07 15:15 31.26582 121.74408 4275 ft 247 kts 352°
2026-05-07 15:15 31.28301 121.74463 4818 ft 252 kts 15°
2026-05-07 15:15 31.29854 121.75387 5342 ft 261 kts 39°
2026-05-07 15:15 31.31126 121.76939 5866 ft 268 kts 46°
2026-05-07 15:16 31.32351 121.78589 6437 ft 271 kts 47°
2026-05-07 15:16 31.33591 121.80272 6967 ft 276 kts 46°
2026-05-07 15:16 31.34843 121.81970 7508 ft 280 kts 46°
2026-05-07 15:16 31.36135 121.83721 8058 ft 283 kts 46°
2026-05-07 15:17 31.37319 121.85600 8592 ft 289 kts 55°
2026-05-07 15:17 31.38359 121.87624 9143 ft 291 kts 56°
2026-05-07 15:17 31.39388 121.89668 9605 ft 296 kts 56°
2026-05-07 15:17 31.40444 121.91756 10129 ft 300 kts 56°
2026-05-07 15:18 31.41538 121.93907 10331 ft 316 kts 56°
2026-05-07 15:18 31.42710 121.96210 10428 ft 336 kts 56°
2026-05-07 15:18 31.43957 121.98663 10545 ft 355 kts 56°
2026-05-07 15:18 31.45236 122.01183 10739 ft 371 kts 57°
2026-05-07 15:19 31.46548 122.03870 10958 ft 386 kts 58°
2026-05-07 15:19 31.47892 122.06661 11291 ft 397 kts 58°
2026-05-07 15:19 31.49252 122.09485 11803 ft 402 kts 58°
2026-05-07 15:19 31.50643 122.12373 12333 ft 408 kts 58°
2026-05-07 15:20 31.52033 122.15256 12875 ft 412 kts 58°
2026-05-07 15:20 31.53433 122.18162 13478 ft 415 kts 58°
2026-05-07 15:20 31.54877 122.21158 14024 ft 420 kts 58°
2026-05-07 15:20 31.56342 122.24200 14518 ft 427 kts 58°
2026-05-07 15:21 31.57794 122.27216 15006 ft 433 kts 58°
2026-05-07 15:21 31.59277 122.30300 15566 ft 437 kts 58°
2026-05-07 15:21 31.60795 122.33459 15764 ft 441 kts 58°
2026-05-07 15:21 31.62113 122.36781 15782 ft 443 kts 69°
2026-05-07 15:22 31.62904 122.40241 15781 ft 446 kts 78°
2026-05-07 15:22 31.63422 122.43881 15787 ft 447 kts 80°
2026-05-07 15:22 31.63900 122.47465 15783 ft 447 kts 80°
2026-05-07 15:22 31.64377 122.51065 15786 ft 446 kts 80°
2026-05-07 15:23 31.64855 122.54685 15787 ft 447 kts 80°
2026-05-07 15:23 31.65328 122.58274 15780 ft 447 kts 80°
2026-05-07 15:23 31.65803 122.61896 15781 ft 448 kts 80°
2026-05-07 15:23 31.66278 122.65507 15818 ft 455 kts 81°
2026-05-07 15:24 31.66765 122.69211 16407 ft 457 kts 81°
2026-05-07 15:24 31.67248 122.72881 17107 ft 456 kts 81°
2026-05-07 15:24 31.67741 122.76643 17584 ft 461 kts 81°
2026-05-07 15:24 31.68234 122.80370 17993 ft 467 kts 80°
2026-05-07 15:25 31.68736 122.84086 18462 ft 471 kts 80°
2026-05-07 15:25 31.69248 122.87887 18920 ft 475 kts 80°
2026-05-07 15:25 31.69768 122.91754 19386 ft 478 kts 80°
2026-05-07 15:25 31.70280 122.95573 19885 ft 480 kts 80°
2026-05-07 15:26 31.70801 122.99476 20303 ft 485 kts 80°
2026-05-07 15:26 31.71316 123.03339 20730 ft 488 kts 80°
2026-05-07 15:26 31.71840 123.07285 21179 ft 491 kts 80°
2026-05-07 15:26 31.72368 123.11267 21583 ft 495 kts 80°
2026-05-07 15:27 31.72900 123.15291 21980 ft 499 kts 80°
2026-05-07 15:27 31.73427 123.19284 22389 ft 501 kts 80°
2026-05-07 15:27 31.73960 123.23340 22774 ft 505 kts 80°
2026-05-07 15:27 31.74493 123.27399 23136 ft 509 kts 80°
2026-05-07 15:28 31.75033 123.31523 23510 ft 512 kts 80°
2026-05-07 15:28 31.75568 123.35625 23892 ft 515 kts 80°
2026-05-07 15:28 31.76114 123.39818 24282 ft 518 kts 80°
2026-05-07 15:28 31.76559 123.43992 24691 ft 521 kts 86°
2026-05-07 15:29 31.76525 123.48255 25089 ft 525 kts 95°
2026-05-07 15:29 31.75948 123.52516 25450 ft 528 kts 104°
2026-05-07 15:29 31.74873 123.56619 25840 ft 529 kts 111°
2026-05-07 15:29 31.73617 123.60650 26259 ft 531 kts 112°
2026-05-07 15:30 31.72333 123.64695 26670 ft 533 kts 112°
2026-05-07 15:30 31.71026 123.68795 27044 ft 536 kts 113°
2026-05-07 15:30 31.69727 123.72858 27342 ft 541 kts 113°
2026-05-07 15:30 31.68397 123.77007 27680 ft 544 kts 113°
2026-05-07 15:31 31.67082 123.81103 28125 ft 545 kts 113°
2026-05-07 15:31 31.65738 123.85283 28527 ft 547 kts 113°
2026-05-07 15:31 31.64402 123.89429 28861 ft 550 kts 113°
2026-05-07 15:31 31.63192 123.93758 29205 ft 555 kts 106°
2026-05-07 15:32 31.62489 123.98259 29621 ft 558 kts 97°
2026-05-07 15:32 31.62315 124.02807 30134 ft 557 kts 88°
2026-05-07 15:32 31.62662 124.07324 30723 ft 554 kts 79°
2026-05-07 15:32 31.63470 124.11661 31310 ft 549 kts 74°
2026-05-07 15:33 31.64453 124.15990 31839 ft 547 kts 73°
2026-05-07 15:33 31.65443 124.20314 32324 ft 545 kts 73°
2026-05-07 15:33 31.66418 124.24595 32711 ft 545 kts 73°
2026-05-07 15:33 31.67384 124.28873 32998 ft 546 kts 73°
2026-05-07 15:34 31.69313 124.37482 33016 ft 545 kts 73°
2026-05-07 15:34 31.71208 124.46011 33017 ft 545 kts 74°